Preview of NWS' New Version of Forecast
This preview is not operational and should not be used for support decisions.

Regional Weather Roundup (RWR)

Issued by National Weather Service (NWS)

                            
000
ASUS45 KBOI 170410
RWRID 

IDAHO REGIONAL WEATHER ROUNDUP
NATIONAL WEATHER SERVICE BOISE ID
1000 PM MDT MON SEP 16 2019

NOTE: "FAIR" INDICATES FEW OR NO CLOUDS BELOW 12000 FEET
WITH NO SIGNIFICANT WEATHER AND/OR OBSTRUCTIONS TO VISIBILITY

IDZ012-014-170500-
SOUTHWEST IDAHO

  
CITY           SKY/WX    TMP DP  RH WIND       PRES   REMARKS
BOISE          LGT RAIN  56  44  64 NW23G36   29.89R                  
CALDWELL       LGT RAIN  53  48  83 SW9       29.89R                  
MOUNTAIN HOME  CLOUDY    59  39  47 W10       29.91R                  
$$

IDZ016-017-170500-
SOUTHCENTRAL IDAHO

  
CITY           SKY/WX    TMP DP  RH WIND       PRES   REMARKS
BURLEY         LGT RAIN  57  38  48 W26G43    29.77R                  
JEROME         MOCLDY    57  38  48 W36G47    29.82R                  
TWIN FALLS     CLOUDY    57  35  43 W22G32    29.83R                  
$$

IDZ019>023-170500-
SOUTHEAST IDAHO

  
CITY           SKY/WX    TMP DP  RH WIND       PRES   REMARKS
IDAHO FALLS    MOCLDY    66  38  35 CALM      29.71F                  
POCATELLO      LGT RAIN  69  34  27 S9        29.70R                  
REXBURG        MOCLDY    58  51  78 N6        29.73F                  
$$

IDZ006-010-011-018-031-032-170500-
CENTRAL IDAHO MOUNTAINS

  
CITY           SKY/WX    TMP DP  RH WIND       PRES   REMARKS
MCCALL         CLOUDY    55  37  50 NW7       29.86R                  
HAILEY         PTCLDY    54  37  54 CALM      29.75                   
STANLEY          N/A     51  27  39 W3        29.85R                  
SALMON         MOCLDY    68  35  29 N12       29.69R                  
CHALLIS        PTCLDY    58  29  33 N7        29.72R                  
$$

IDZ002-004-006-007-026-170500-
NORTHERN IDAHO

  
CITY           SKY/WX    TMP DP  RH WIND       PRES   REMARKS
LEWISTON       MOCLDY    56  47  71 CALM      29.85S                  
LOWELL           N/A     64  44  48 CALM      29.82S                  
COEUR D'ALENE  MOCLDY    51  46  83 W3        29.85F                  
MULLAN PASS    CLOUDY    41  39  93 NW5       29.88F                  
$$